Location: De Moespot
(52.6869°N, 5.9656°E)
Time: 13:00:07
(UTC+00:00)

Daily predictions for brighter satellites

Satellite Brightness Start Highest point End
(mag) Time Altitude Azimuth Time Altitude Azimuth Time Altitude Azimuth
IRS-1D 4.4 15:53:33 10° S 15:58:23 53° W 16:03:13 10° NNW
Cosmos 1315 Rocket 3.5 15:57:16 10° SSE 16:00:44 33° E 16:04:13 10° NNE
Cosmos 1850 Rocket 4.2 15:55:57 10° SSW 16:01:06 74° WNW 16:06:18 10° NNE
Cosmos 292 Rocket 3.8 15:58:44 10° SSW 16:03:30 68° ESE 16:08:16 10° NNE
SJ 16-02 3.4 16:00:43 10° W 16:03:53 20° NW 16:07:04 10° N
CENTAUR R/B 2.7 16:00:27 10° SSW 16:06:01 62° SE 16:13:05 10° NE
Cosmos 2263 Rocket 3.5 16:02:40 10° NNW 16:06:46 20° NNE 16:10:52 10° ENE
Cosmos 1782 4.1 16:06:19 10° SE 16:08:50 18° E 16:11:21 10° NE
YAOGAN 1 4.3 16:08:06 10° ENE 16:09:50 12° NE 16:11:33 10° NNE
Cosmos 1607 4.1 16:06:04 10° NW 16:12:08 53° NE 16:18:15 10° ESE
SL-16 R/B 2.7 16:07:16 10° NNE 16:13:27 58° ESE 16:19:32 10° S
Cosmos 405 Rocket 2.7 16:10:48 10° N 16:13:54 39° ENE 16:16:59 10° SE
Cosmos 1733 3.2 16:12:49 10° NNE 16:14:05 15° ENE 16:15:21 10° ESE
Cosmos 1356 Rocket 3.7 16:11:40 10° S 16:15:32 47° E 16:19:29 10° NNE
Cosmos 2227 Rocket 3.1 16:11:27 10° NNW 16:16:18 28° NE 16:21:08 10° E
Cosmos 332 Rocket 4.4 16:12:08 10° SW 16:16:52 55° WNW 16:21:36 10° NNE
CORIOLIS 4.2 16:13:33 10° SE 16:18:43 55° ENE 16:23:57 10° N
Cosmos 773 Rocket 4.1 16:16:21 10° NNW 16:21:27 53° ENE 16:26:34 10° SE
SJ-12 4.5 16:18:38 10° SE 16:21:59 31° ENE 16:25:21 10° N
Cosmos 2369 Rocket 2.9 16:17:18 10° SW 16:22:48 52° NW 16:28:22 10° NNE
USA 215 3.4 16:17:28 10° ENE 16:23:55 62° N 16:30:23 10° W
Cosmos 2228 3.1 16:23:40 10° S 16:27:48 55° E 16:31:59 10° NNE
Cosmos 1758 Rocket 3.7 16:23:42 10° N 16:27:55 48° ENE 16:32:05 10° SSE
Intercosmos 24 3.8 16:24:17 10° N 16:28:33 58° ENE 16:32:05 10° SSE
Cosmos 2208 Rocket 4.0 16:24:11 10° NNW 16:29:20 61° ENE 16:34:26 10° SE
ARIANE 5 R/B 2.7 16:24:48 10° SE 16:29:41 51° ENE 16:34:38 10° N
Cosmos 1943 Rocket 4.2 16:27:57 10° WNW 16:31:15 16° NNW 16:34:35 10° NNE
Cosmos 2278 Rocket 4.2 16:27:40 10° WNW 16:31:16 17° NNW 16:34:53 10° NNE
SPOT 1/Viking Rocket 4.3 16:28:16 10° ESE 16:32:44 30° ENE 16:37:12 10° N
Cosmos 2098 Rocket 3.8 16:29:45 10° SSE 16:33:20 32° E 16:37:28 10° NNE
GEOS 3 Rocket 3.9 16:29:20 11° NE 16:34:29 60° SE 16:39:48 10° SSW
Okean 1 Rocket 4.4 16:30:28 10° SW 16:34:30 38° WNW 16:38:33 10° N
Cosmos 1697 Rocket 4.2 16:35:24 10° SE 16:38:34 16° E 16:40:11 14° ENE
NOSS 3-3 (C) 4.5 16:33:07 10° NW 16:40:11 76° NE 16:48:43 10° SE
Meteor 1-20 Rocket 4.4 16:36:10 10° N 16:41:27 45° ENE 16:46:40 10° SE
AQUARIUS 4.3 16:39:49 10° SE 16:44:02 47° ENE 16:48:17 10° N
USA 290 2.5 16:43:07 10° NNW 16:46:17 45° ENE 16:49:26 10° SE
SL-08 ROCKET BODY 4.3 16:43:20 10° N 16:49:16 76° ENE 16:55:16 10° SSE
Radarsat 4.5 16:45:08 10° SSE 16:50:19 81° ENE 16:55:31 10° NNW
IRS-1C 4.1 16:45:59 10° SSE 16:51:16 73° ENE 16:56:36 10° NNW
Cosmos 1626 Rocket 3.5 16:47:57 10° NNW 16:52:19 88° W 16:56:39 10° S
BREEZE-M DEB (TANK) 3.2 16:50:08 10° WSW 16:52:56 84° SSE 16:59:05 16° E
NOSS 2-2 (C) 2.6 16:51:34 10° SW 16:54:43 69° SE 16:56:15 26° NE
SMAP 3.1 16:51:00 10° SSE 16:55:40 85° WSW 17:00:21 10° NNW
CZ-2D R/B 2.6 16:52:59 10° SSE 16:56:05 66° ENE 16:59:14 10° N
NOSS 3-2 (C) 4.1 16:55:49 10° S 17:00:07 28° ESE 17:02:36 20° ENE
Thor Agena Rocket 4.0 16:55:21 10° S 17:00:33 65° WSW 17:05:43 10° NNW
Cosmos 2151 2.9 16:56:55 10° N 17:01:02 61° ENE 17:05:08 10° SSE
Cosmos 1655 Rocket 4.4 16:55:29 10° N 17:01:17 38° ENE 17:07:01 10° SE
NOSS 3-2 (A) 3.3 16:56:24 10° SSW 17:01:23 62° SE 17:05:38 19° NE
Landsat 7 3.7 16:57:09 10° SSE 17:01:49 86° ENE 17:06:31 10° NNW
Cosmos 1606 Rocket 4.5 16:59:43 10° SSE 17:03:26 27° E 17:04:46 23° ENE
BlueWalker 3 3.2 17:01:07 10° W 17:04:28 36° SSW 17:07:49 10° SE
Cosmos 1634 Rocket 4.2 16:58:54 10° SSW 17:05:05 74° WNW 17:11:17 10° N
Cosmos 1743 2.1 17:02:28 10° N 17:05:45 82° ENE 17:08:59 10° SSE
ATLAS CENTAUR R/B 1.2 17:03:49 10° NW 17:07:04 60° SW 17:10:11 10° SSE
Cosmos 1076 Rocket 4.3 17:03:29 10° N 17:07:13 28° ENE 17:09:56 15° ESE
UNK 3.6 17:03:00 10° NNE 17:07:38 83° ESE 17:12:12 10° SSW
Okean 1-7 Rocket 3.6 17:04:43 10° N 17:09:04 55° ENE 17:13:21 10° SSE
Cosmos 2297 Rocket 2.2 17:04:19 10° NNW 17:10:02 86° WSW 17:15:42 10° SSE
Resurs 1-3 4.1 17:07:22 10° SE 17:11:16 35° ENE 17:15:11 10° N
Lacrosse 4 Rocket 2.2 17:07:31 10° WSW 17:11:26 45° NW 17:14:13 17° NNE
Meteor 1-25 Rocket 4.3 17:05:46 10° N 17:11:33 60° ENE 17:17:17 10° SSE
Cosmos 1544 Rocket 3.5 17:07:48 10° S 17:12:12 88° E 17:16:40 10° NNE
Cosmos 1656 3.7 17:08:46 10° SSW 17:14:20 68° ESE 17:18:28 19° NE
Cosmos 1461 4.1 17:12:27 10° S 17:15:26 22° ESE 17:15:26 22° ESE
Cosmos 1503 Rocket 4.4 17:10:53 10° S 17:15:46 41° ESE 17:18:11 25° NE
IRIDIUM 104 4.2 17:11:05 10° N 17:16:20 79° E 17:21:34 10° S
Meteor 1-28 Rocket 4.1 17:13:19 10° N 17:16:31 42° WNW 17:19:42 10° SW
Cosmos 2279 Rocket 4.1 17:16:21 10° SSW 17:22:33 78° WNW 17:28:50 10° N
Cosmos 2219 3.9 17:18:26 10° NNW 17:23:37 34° NE 17:25:10 29° ENE
SKYMED 2 4.0 17:23:07 33° ENE 17:24:19 40° E 17:28:24 10° SSE
IRIDIUM 114 4.3 17:20:13 10° N 17:25:29 88° W 17:30:43 10° S
Meteor 1-5 Rocket 4.2 17:21:17 10° N 17:26:30 52° ENE 17:31:44 10° SSE
Spot 4 Rocket 4.0 17:22:00 10° SE 17:26:59 57° ENE 17:32:01 10° N
Lacrosse 5 rocket 1.1 17:23:46 10° WSW 17:27:30 70° NNW 17:28:28 45° NE
COSMO-SKYMED 1 3.7 17:29:12 24° SE 17:29:12 24° SE 17:31:30 10° SSE
Cosmos 1726 Rocket 4.1 17:25:44 10° SSE 17:30:00 38° E 17:30:23 37° E
Cosmos 1602 Rocket 3.8 17:25:45 10° NNW 17:30:09 69° W 17:34:29 10° S
PSLV R/B 3.6 17:28:53 30° ESE 17:30:28 45° ENE 17:34:20 10° N
MOS 1 Rocket 3.6 17:26:40 10° S 17:31:30 76° WSW 17:36:40 10° NNW
CZ-4 R/B 4.2 17:27:56 10° SSE 17:31:53 80° ENE 17:35:51 10° NNW
Cosmos 2084 4.3 17:28:11 10° WSW 17:32:11 41° NNW 17:33:52 27° NNE
IRIDIUM 103 4.5 17:29:24 10° N 17:34:39 76° W 17:39:51 10° S
CZ-4C R/B 3.0 17:28:32 10° NW 17:35:15 82° SW 17:43:44 10° SE
Cosmos 2084 Rocket 3.4 17:31:07 10° NW 17:35:21 79° SW 17:37:51 24° SE
Cosmos 2180 Rocket 4.5 17:29:17 10° S 17:35:24 85° W 17:41:37 10° N
SL-19 R/B 4.2 17:30:33 10° SE 17:35:48 60° ENE 17:41:22 10° NNW
Cosmos 1777 Rocket 3.9 17:32:32 10° SSW 17:37:45 68° ESE 17:40:21 30° NE
Cosmos 1867 3.5 17:33:49 10° NW 17:39:19 87° SW 17:44:00 14° SE
CZ-2D R/B 3.3 17:35:27 10° SSE 17:39:39 77° ENE 17:43:50 10° NNW
Cosmos 1980 Rocket 3.8 17:35:45 10° SSE 17:37:44 17° SE 17:37:44 17° SE
Resurs 01 Rocket 3.5 17:42:49 16° N 17:42:49 16° N 17:43:52 10° N
Cosmos 1900 4.4 17:37:57 10° NW 17:43:02 79° SW 17:47:17 14° SSE
Cosmos 1782 3.7 17:39:56 10° SW 17:43:23 41° WNW 17:46:14 14° N
YAOGAN 1 2.4 17:40:42 10° SSE 17:44:55 71° ENE 17:49:12 10° N
Cosmos 1844 Rocket 4.0 17:41:02 10° NNW 17:44:55 22° NNE 17:44:55 22° NNE
Cosmos 2263 Rocket 2.2 17:46:14 10° NNW 17:51:52 60° NE 17:53:46 40° ESE
Cosmos 1953 Rocket 3.4 17:47:49 10° N 17:52:14 65° ENE 17:53:35 42° SE
Cosmos 1486 Rocket 4.0 17:47:03 10° SSW 17:52:16 78° WNW 17:55:12 27° NNE
NOSS 2-2 (D) 3.3 17:52:02 10° WSW 17:54:45 53° W 17:54:45 53° W
Cosmos 2266 Rocket 4.5 17:49:58 10° NNW 17:56:04 60° W 18:02:02 10° S
SL-16 R/B 3.9 17:51:12 10° N 17:56:46 35° WNW 18:02:17 10° WSW
CENTAUR R/B 3.3 17:50:56 10° WSW 17:56:55 50° NNW 18:00:51 27° NE
Cosmos 2360 4.2 17:52:24 10° SSW 17:58:08 83° WNW 18:00:52 33° NNE
USA 81 3.9 17:53:39 10° N 17:58:54 62° E 18:04:06 10° SSE
Cosmos 1933 3.1 17:55:54 10° SSW 17:59:44 82° W 17:59:50 81° NW
Cosmos 2227 Rocket 2.2 17:55:17 10° NNW 18:00:58 80° WSW 18:06:36 10° SSE
Cosmos 1825 Rocket 4.0 18:00:09 10° NNW 18:04:29 61° W 18:08:45 10° S
NOSS 2-2 (E) 3.9 18:01:21 10° WSW 18:03:40 42° WSW 18:03:40 42° WSW
USA 215 3.2 18:04:26 44° E 18:06:42 75° NNE 18:13:15 10° WNW
Cosmos 2369 Rocket 4.3 18:04:17 10° WNW 18:08:10 18° NNW 18:11:14 13° N
ARIANE 5 R/B 4.5 18:04:36 10° SSW 18:08:58 29° W 18:13:24 10° NW
NOAA 6 3.9 18:05:28 10° SSE 18:10:36 86° ENE 18:15:44 10° NNW
USA 281 4.0 18:11:45 33° NNE 18:11:45 33° NNE 18:16:59 10° NNW
SPOT 1/Viking Rocket 4.3 18:06:45 10° S 18:11:50 54° W 18:16:58 10° NNW
GEOS 3 Rocket 4.4 18:10:23 32° NNE 18:12:23 46° NNW 18:17:30 10° WSW
IRAS Rocket 4.3 18:09:39 10° SSE 18:15:09 74° WSW 18:20:39 10° NNW
Cosmos 1943 Rocket 4.4 18:15:42 10° NNW 18:17:31 11° N 18:17:42 11° N
Cosmos 2278 Rocket 4.4 18:15:43 10° NNW 18:17:53 12° N 18:18:15 12° N
Cosmos 990 Rocket 3.8 18:15:16 10° SSW 18:20:06 75° SSE 18:20:06 75° SSE
Cosmos 1697 Rocket 2.5 18:16:00 10° SSW 18:21:36 78° ESE 18:21:56 75° ENE
Cosmos 1244 Rocket 4.4 18:29:18 10° N 18:35:40 89° E 18:40:12 20° S
Cosmos 1538 Rocket 4.3 18:40:15 10° NNW 18:45:28 63° WSW 18:45:41 62° WSW
Cosmos 2082 4.0 18:40:00 10° NNW 18:44:30 56° NNW 18:44:30 56° NNW
Lacrosse 4 Rocket 4.0 18:48:05 10° NW 18:49:43 14° NNW 18:49:43 14° NNW
NOSS 3-2 (C) 3.4 18:45:02 10° WSW 18:50:02 71° WNW 18:50:02 71° WNW
NOSS 3-2 (A) 4.1 18:47:12 10° W 18:52:26 45° NNW 18:52:59 44° N
Lacrosse 5 rocket 4.1 19:01:22 10° WNW 19:02:04 14° WNW 19:02:04 14° WNW
Cosmos 2219 3.8 19:02:28 10° NW 19:07:05 53° WNW 19:07:05 53° WNW
Resurs 01 Rocket 4.5 19:20:13 11° NNW 19:20:13 11° NNW 19:20:23 10° NNW
Cosmos 1980 Rocket 4.0 19:17:34 10° SW 19:19:32 22° SW 19:19:32 22° SW
Cosmos 2263 Rocket 3.8 19:30:36 10° NW 19:35:27 30° WSW 19:35:30 30° WSW
CENTAUR R/B 4.0 19:42:49 10° WNW 19:47:56 35° NNW 19:47:56 35° NNW
USA 215 4.1 19:51:47 44° W 19:51:47 44° W 19:56:23 10° WNW
